Location: Girdwood
(60.9430°N, 149.1660°W)
Time: 12:25:25
(UTC-08:00)

Amateur Radio Satellites - All Passes

Search period start: 02 August 2015 11:55
Search period end: 03 August 2015 11:55
Location: Girdwood, 60.9430°N, 149.1660°W

Satellite Date Start Highest point End Downlink Frequencies (MHz)
Time Altitude Azimuth
Cosmos 2499 02 Aug 11:55:27 12:02:22 31° 317° (NW) 12:09:41 435.465 / 435.565
HUMSAT D 02 Aug 11:56:49 12:00:41 31° 93° (E) 12:04:34 437.325/437.525
QB50P2 02 Aug 11:56:51 12:01:05 80° 253° (WSW) 12:05:21 145.880/145.840
O/OREOS (USA 219) 02 Aug 12:00:11 12:04:36 48° 242° (WSW) 12:09:01 437.305
AAUSAT CUBESAT 2 02 Aug 12:01:27 12:05:37 58° 293° (WNW) 12:09:46 437.432
SO-50 02 Aug 12:03:56 12:08:45 64° 142° (SE) 12:13:42 436.795
BRITE-PL 02 Aug 12:04:16 12:07:27 20° 309° (NW) 12:10:39 437.365/2234.400
M-CUBED/EXP-1 PRIME 02 Aug 12:05:04 12:06:19 11° 277° (W) 12:07:23 437.505
AISAT 02 Aug 12:07:09 12:10:23 20° 87° (E) 12:13:43 437.250
GOMX 1 02 Aug 12:07:14 12:10:55 26° 305° (NW) 12:14:42 467.674
CUBEBUG 2 02 Aug 12:07:41 12:12:18 88° 279° (W) 12:17:01 437.445
CUBEBUG 1 02 Aug 12:16:56 12:19:36 16° 84° (E) 12:22:23 437.445
AO-7 02 Aug 12:17:33 12:23:57 26° 9° (N) 12:30:22 29.400- 29.500
Gurwin Techsat 1B 02 Aug 12:18:04 12:21:06 16° 34° (NE) 12:24:12 435.225
DUCHIFAT 1 02 Aug 12:19:52 12:24:00 56° 258° (WSW) 12:28:10 145.980
QB50P1 02 Aug 12:24:22 12:28:30 51° 260° (W) 12:32:39 145.935-145.965
NANOSAT C BR1 02 Aug 12:24:58 12:29:05 51° 259° (W) 12:33:14 145.865
DX 1 02 Aug 12:25:20 12:29:21 35° 96° (E) 12:33:23 434.975-435.025
HO-68 02 Aug 12:29:53 12:36:52 55° 305° (NW) 12:43:49 435.675
ITAMSAT 1 02 Aug 12:31:11 12:34:19 17° 36° (NE) 12:37:32 435.822/435.867
YUBILEINY 02 Aug 12:34:26 12:43:20 87° 256° (WSW) 12:52:12 435.215
CUTE-I 02 Aug 12:35:46 12:37:27 11° 338° (NNW) 12:39:04 437.470
TIGRISAT 02 Aug 12:37:57 12:41:38 25° 271° (W) 12:45:22 435.000
ANTELSAT 02 Aug 12:40:33 12:44:10 23° 272° (W) 12:47:48 437.575/2403.000
Oscar 19 02 Aug 12:43:52 12:48:24 33° 53° (NE) 12:53:00 437.125/150
VELOX 1 02 Aug 12:45:20 12:49:25 35° 96° (E) 12:53:30 145.980
SPROUT 02 Aug 12:47:42 12:49:21 12° 80° (E) 12:51:09 437.525
50 SAT 02 Aug 12:55:30 12:59:24 48° 100° (E) 13:03:17 437.505
PCSat 02 Aug 12:56:07 13:01:33 65° 333° (NNW) 13:06:59 145.827
COMPASS 1 02 Aug 12:57:17 13:00:43 24° 307° (NW) 13:04:04 437.405
ZACube-1 02 Aug 12:58:13 13:02:39 56° 294° (WNW) 13:07:08 437.345
ESTCUBE 1 02 Aug 13:02:58 13:07:12 38° 96° (E) 13:11:26 437.505/2401.250
Cosmos 2504 02 Aug 13:05:37 13:13:11 39° 53° (NE) 13:21:09 435.465 / 435.565
POLYITAN 1 02 Aug 13:09:20 13:12:50 24° 270° (W) 13:16:19 437.675
DELFI C3 02 Aug 13:12:19 13:16:08 38° 299° (WNW) 13:19:55 145.870
JAS-2 02 Aug 13:12:41 13:18:00 25° 32° (NNE) 13:23:46 435.910
AIST 1 02 Aug 13:14:38 13:18:50 52° 97° (E) 13:23:03
SEEDS 02 Aug 13:15:14 13:18:05 17° 313° (NW) 13:20:52 437.485
GONETS M04 02 Aug 13:19:01 13:24:37 18° 3° (N) 13:30:14
FUNcube-1 02 Aug 13:19:21 13:23:35 41° 299° (WNW) 13:27:53 145.935
CUTE 1.7 + AOD 2 02 Aug 13:20:48 13:23:19 15° 316° (NW) 13:25:44 437.475
Cosmos 2491 02 Aug 13:21:03 13:29:32 59° 92° (E) 13:38:04 435.465 / 435.565
BUGSAT 1 02 Aug 13:21:34 13:25:00 26° 268° (W) 13:28:24 437.445
CINEMA 3 02 Aug 13:24:26 13:27:52 21° 310° (NW) 13:31:21 145.822/145.860
UWE-3 02 Aug 13:25:48 13:29:53 33° 303° (WNW) 13:34:00 435.000/436.395/437.385
POPSAT HIP 1 02 Aug 13:26:24 13:29:29 19° 273° (W) 13:32:30 437.405
DOVE 4 02 Aug 13:27:02 13:29:22 14° 318° (NW) 13:31:39 437.250
CANX-2 02 Aug 13:29:45 13:31:48 13° 319° (NW) 13:33:46 2200.000
Oscar 11 02 Aug 13:29:55 13:33:38 27° 306° (NW) 13:37:17 145.826/435.025
UKube-1 02 Aug 13:30:51 13:35:12 83° 291° (WNW) 13:39:32 .
HUMSAT D 02 Aug 13:32:25 13:36:39 55° 294° (WNW) 13:40:54 437.325/437.525
QB50P2 02 Aug 13:34:57 13:37:43 16° 275° (W) 13:40:23 145.880/145.840
UNISAT 6 02 Aug 13:35:48 13:36:33 10° 284° (WNW) 13:37:07 437.425
AAUSAT CUBESAT 2 02 Aug 13:37:54 13:40:29 16° 314° (NW) 13:43:00 437.432
O/OREOS (USA 219) 02 Aug 13:41:40 13:43:05 11° 262° (W) 13:44:18 437.305
AISAT 02 Aug 13:43:08 13:47:36 87° 289° (WNW) 13:52:02 437.250
SO-50 02 Aug 13:44:31 13:49:26 65° 345° (NNW) 13:54:24 436.795
CUBEBUG 2 02 Aug 13:44:53 13:48:31 23° 308° (NW) 13:52:10 437.445
CUBEBUG 1 02 Aug 13:52:23 13:56:45 77° 106° (ESE) 14:01:05 437.445
Cosmos 2499 02 Aug 13:53:30 13:58:52 18° 348° (NNW) 14:04:23 435.465 / 435.565
Gurwin Techsat 1B 02 Aug 13:55:00 13:59:56 40° 57° (ENE) 14:04:55 435.225
DUCHIFAT 1 02 Aug 13:59:15 14:00:48 12° 280° (W) 14:02:13 145.980
DX 1 02 Aug 14:01:33 14:05:46 48° 298° (WNW) 14:09:56 434.975-435.025
QB50P1 02 Aug 14:04:33 14:05:27 10° 282° (WNW) 14:06:10 145.935-145.965
NANOSAT C BR1 02 Aug 14:05:08 14:06:00 10° 282° (WNW) 14:06:43 145.865
AO-7 02 Aug 14:07:23 14:14:50 38° 36° (NE) 14:22:21 29.400- 29.500
ITAMSAT 1 02 Aug 14:07:51 14:12:47 44° 58° (ENE) 14:17:44 435.822/435.867
BEESAT 02 Aug 14:13:16 14:14:55 12° 78° (ENE) 14:16:45 436.000
HO-68 02 Aug 14:17:45 14:23:25 26° 330° (NNW) 14:29:00 435.675
VELOX 1 02 Aug 14:21:52 14:26:08 49° 297° (WNW) 14:30:23 145.980
SPROUT 02 Aug 14:22:10 14:26:26 57° 102° (ESE) 14:30:42 437.525
Oscar 19 02 Aug 14:22:22 14:27:29 71° 254° (WSW) 14:32:41 437.125/150
TISAT 1 02 Aug 14:27:41 14:31:44 44° 99° (E) 14:35:48 437.305
50 SAT 02 Aug 14:30:15 14:33:52 32° 301° (WNW) 14:37:26 437.505
YUBILEINY 02 Aug 14:31:44 14:39:15 32° 282° (WNW) 14:46:38 435.215
SWISSCUBE 02 Aug 14:33:06 14:36:13 17° 83° (E) 14:39:25 437.505
ZACube-1 02 Aug 14:35:24 14:38:15 16° 315° (NW) 14:41:02 437.345
ESTCUBE 1 02 Aug 14:39:51 14:44:12 46° 298° (WNW) 14:48:30 437.505/2401.250
PCSat 02 Aug 14:40:27 14:45:41 45° 357° (N) 14:50:55 145.827
DANDE 02 Aug 14:40:50 14:43:09 18° 57° (ENE) 14:45:55 436.750
CUSAT 1 02 Aug 14:48:48 14:52:01 32° 63° (ENE) 14:56:07 437.405
DELFI C3 02 Aug 14:48:53 14:50:15 11° 320° (NW) 14:51:31 145.870
AIST 1 02 Aug 14:52:48 14:56:43 32° 299° (WNW) 15:00:37
HORYU 2 02 Aug 14:53:35 14:57:04 23° 50° (NE) 15:00:38 437.375
ITUPSAT 1 02 Aug 14:54:35 14:58:18 22° 88° (E) 15:02:04 437.325
JAS-2 02 Aug 14:55:16 15:01:41 53° 57° (ENE) 15:08:55 435.910
FUNcube-1 02 Aug 14:56:47 14:58:58 13° 320° (NW) 15:01:03 145.935
Cosmos 2504 02 Aug 14:58:03 15:06:20 85° 258° (WSW) 15:14:58 435.465 / 435.565
UWE-3 02 Aug 15:03:52 15:05:17 11° 324° (NW) 15:06:37 435.000/436.395/437.385
UKube-1 02 Aug 15:07:32 15:10:50 21° 311° (NW) 15:14:04 .
HUMSAT D 02 Aug 15:09:02 15:11:38 16° 315° (NW) 15:14:10 437.325/437.525
Cosmos 2491 02 Aug 15:18:05 15:26:41 55° 299° (WNW) 15:35:15 435.465 / 435.565
GONETS M04 02 Aug 15:18:16 15:25:19 27° 35° (NE) 15:32:29
AISAT 02 Aug 15:20:15 15:23:42 22° 310° (NW) 15:27:06 437.250
SO-50 02 Aug 15:25:34 15:30:30 59° 9° (N) 15:35:26 436.795
CUBEBUG 1 02 Aug 15:29:11 15:32:45 25° 307° (NW) 15:36:17 437.445
Gurwin Techsat 1B 02 Aug 15:34:35 15:39:50 58° 258° (WSW) 15:45:07 435.225
DX 1 02 Aug 15:38:45 15:41:10 15° 319° (NW) 15:43:31 434.975-435.025
ITAMSAT 1 02 Aug 15:47:13 15:52:18 50° 259° (W) 15:57:25 435.822/435.867
BEESAT 02 Aug 15:49:18 15:54:00 51° 101° (E) 15:58:40 436.000
Cosmos 2499 02 Aug 15:50:15 15:55:59 20° 19° (NNE) 16:02:01 435.465 / 435.565
CUTE-I 02 Aug 15:50:51 15:53:20 14° 28° (NNE) 15:55:53 437.470
AO-7 02 Aug 15:58:30 16:06:53 81° 61° (ENE) 16:15:18 29.400- 29.500
SPROUT 02 Aug 15:58:31 16:02:21 31° 303° (WNW) 16:06:08 437.525
VELOX 1 02 Aug 15:59:20 16:01:51 15° 318° (NW) 16:04:17 145.980
TISAT 1 02 Aug 16:03:34 16:07:30 38° 300° (WNW) 16:11:24 437.305
Oscar 19 02 Aug 16:04:21 16:07:52 18° 278° (W) 16:11:15 437.125/150
HO-68 02 Aug 16:04:33 16:09:03 18° 356° (N) 16:13:31 435.675
SWISSCUBE 02 Aug 16:10:08 16:14:58 74° 105° (ESE) 16:19:45 437.505
KKS-1 02 Aug 16:14:29 16:18:03 23° 90° (E) 16:21:41 437.445
ESTCUBE 1 02 Aug 16:17:40 16:20:10 15° 319° (NW) 16:22:35 437.505/2401.250
DANDE 02 Aug 16:23:15 16:26:29 68° 255° (WSW) 16:30:41 436.750
PCSat 02 Aug 16:24:33 16:29:55 57° 22° (NNE) 16:35:18 145.827
HORYU 2 02 Aug 16:28:44 16:33:14 87° 74° (ENE) 16:37:46 437.375
CUSAT 1 02 Aug 16:31:09 16:34:38 43° 259° (W) 16:39:09 437.405
ITUPSAT 1 02 Aug 16:32:00 16:36:51 87° 289° (WNW) 16:41:39 437.325
YUBILEINY 02 Aug 16:32:11 16:33:12 10° 309° (NW) 16:33:49 435.215
Cubesat XI-IV 02 Aug 16:33:34 16:37:13 19° 39° (NE) 16:40:57 437.490
JAS-2 02 Aug 16:40:21 16:46:49 56° 262° (W) 16:54:07 435.910
Cosmos 2504 02 Aug 16:50:44 16:57:43 31° 282° (WNW) 17:04:48 435.465 / 435.565
SO-50 02 Aug 17:06:20 17:11:21 84° 211° (SSW) 17:16:19 436.795
GONETS M04 02 Aug 17:15:45 17:24:22 59° 64° (ENE) 17:33:01
MOZHAYETS 4 02 Aug 17:17:33 17:20:40 18° 84° (E) 17:23:53
Gurwin Techsat 1B 02 Aug 17:18:02 17:21:05 15° 281° (WNW) 17:23:57 435.225
Cosmos 2491 02 Aug 17:18:54 17:25:56 25° 328° (NNW) 17:32:50 435.465 / 435.565
STARS 02 Aug 17:19:26 17:23:43 46° 100° (E) 17:28:01 437.465
BEESAT 02 Aug 17:27:19 17:31:49 40° 302° (WNW) 17:36:15 436.000
CUTE-I 02 Aug 17:27:23 17:32:03 32° 51° (NE) 17:36:47 437.470
ITAMSAT 1 02 Aug 17:30:50 17:33:11 13° 283° (WNW) 17:35:20 435.822/435.867
SPROUT 02 Aug 17:36:37 17:37:18 10° 325° (NW) 17:37:54 437.525
TISAT 1 02 Aug 17:40:43 17:42:17 12° 321° (NW) 17:43:46 437.305
Cosmos 2499 02 Aug 17:44:29 17:52:12 36° 48° (NE) 18:00:17 435.465 / 435.565
SWISSCUBE 02 Aug 17:48:21 17:52:31 30° 307° (NW) 17:56:37 437.505
HO-68 02 Aug 17:49:23 17:54:31 22° 23° (NNE) 17:59:44 435.675
KKS-1 02 Aug 17:50:43 17:55:12 77° 291° (WNW) 17:59:41 437.445
AO-7 02 Aug 17:52:44 18:00:32 40° 266° (W) 18:08:17 29.400- 29.500
HORYU 2 02 Aug 18:07:06 18:10:30 21° 272° (W) 18:13:52 437.375
PCSat 02 Aug 18:08:09 18:13:34 66° 226° (SW) 18:18:57 145.827
DANDE 02 Aug 18:08:33 18:09:17 10° 270° (W) 18:09:52 436.750
ITUPSAT 1 02 Aug 18:10:22 18:14:15 25° 311° (NW) 18:18:04 437.325
Cubesat XI-IV 02 Aug 18:11:12 18:16:24 53° 61° (ENE) 18:21:39 437.490
JAS-2 02 Aug 18:29:18 18:33:49 18° 288° (WNW) 18:38:24 435.910
BRITE-PL 02 Aug 18:31:42 18:34:16 16° 47° (NE) 18:36:55 437.365/2234.400
GOMX 1 02 Aug 18:34:19 18:36:13 13° 41° (NE) 18:38:12 467.674
SO-50 02 Aug 18:47:08 18:51:29 30° 233° (SW) 18:55:44 436.795
MOZHAYETS 4 02 Aug 18:54:01 18:58:42 79° 104° (ESE) 19:03:21
STARS 02 Aug 18:56:01 19:00:09 39° 300° (WNW) 19:04:15 437.465
BEESAT 02 Aug 19:06:06 19:08:36 14° 324° (NW) 19:11:00 436.000
CUTE-I 02 Aug 19:06:26 19:11:48 78° 252° (WSW) 19:17:13 437.470
GONETS M04 02 Aug 19:12:55 19:21:20 54° 270° (W) 19:29:41
COMPASS 1 02 Aug 19:14:19 19:15:59 12° 40° (NE) 19:17:45 437.405
CUBESAT XI-V 02 Aug 19:16:17 19:19:56 23° 88° (E) 19:23:38 437.345
Cosmos 2491 02 Aug 19:21:07 19:26:44 18° 0° (N) 19:32:21 435.465 / 435.565
SWISSCUBE 02 Aug 19:27:34 19:29:05 11° 330° (NNW) 19:30:30 437.505
KKS-1 02 Aug 19:27:57 19:31:17 21° 312° (NW) 19:34:33 437.445
SEEDS 02 Aug 19:31:04 19:33:46 17° 47° (NE) 19:36:33 437.485
HO-68 02 Aug 19:34:09 19:40:45 43° 48° (NE) 19:47:25 435.675
CUTE 1.7 + AOD 2 02 Aug 19:36:23 19:39:30 20° 50° (NE) 19:42:41 437.475
Cosmos 2499 02 Aug 19:37:58 19:46:38 86° 76° (ENE) 19:55:34 435.465 / 435.565
CANX-2 02 Aug 19:44:40 19:48:05 23° 53° (NE) 19:51:32 2200.000
CINEMA 3 02 Aug 19:46:28 19:49:13 17° 46° (NE) 19:52:06 145.822/145.860
UWE-3 02 Aug 19:47:29 19:48:44 11° 36° (NE) 19:50:06 435.000/436.395/437.385
Oscar 11 02 Aug 19:49:13 19:51:02 13° 40° (NE) 19:52:58 145.826/435.025
DOVE 4 02 Aug 19:49:38 19:53:05 26° 54° (NE) 19:56:39 437.250
Cubesat XI-IV 02 Aug 19:51:36 19:56:43 42° 263° (W) 20:01:49 437.490
PCSat 02 Aug 19:52:13 19:56:12 21° 248° (WSW) 20:00:05 145.827
AAUSAT CUBESAT 2 02 Aug 19:52:37 19:55:25 18° 48° (NE) 19:58:18 437.432
AO-7 02 Aug 19:53:01 19:56:17 12° 293° (WNW) 19:59:06 29.400- 29.500
CUBEBUG 2 02 Aug 20:05:21 20:07:49 15° 43° (NE) 20:10:25 437.445
BRITE-PL 02 Aug 20:08:01 20:12:13 65° 67° (ENE) 20:16:21 437.365/2234.400
GOMX 1 02 Aug 20:09:31 20:13:29 46° 64° (ENE) 20:17:33 467.674
STRAND 1 02 Aug 20:29:58 20:34:33 32° 93° (E) 20:39:08 437.568
MOZHAYETS 4 02 Aug 20:31:39 20:35:34 27° 307° (NW) 20:39:25
STARS 02 Aug 20:33:38 20:35:35 13° 322° (NW) 20:37:29 437.465
COMPASS 1 02 Aug 20:46:45 20:50:42 40° 62° (ENE) 20:54:43 437.405
CUTE-I 02 Aug 20:48:50 20:52:50 20° 276° (W) 20:56:42 437.470
RS-15 02 Aug 20:50:14 20:56:00 17° 93° (E) 21:02:26 29.354- 29.394
ZACube-1 02 Aug 20:53:00 20:56:12 21° 49° (NE) 20:59:31 437.345
CUBESAT XI-V 02 Aug 20:53:18 20:57:58 80° 290° (WNW) 21:02:35 437.345
DELFI C3 02 Aug 21:00:04 21:03:12 22° 53° (NE) 21:06:25 145.870
SEEDS 02 Aug 21:04:39 21:08:52 62° 67° (ENE) 21:13:08 437.485
ESTCUBE 1 02 Aug 21:04:43 21:04:47 10° 32° (NNE) 21:04:58 437.505/2401.250
PRISM 02 Aug 21:09:49 21:13:51 47° 101° (E) 21:17:50 437.425
CUTE 1.7 + AOD 2 02 Aug 21:10:33 21:14:52 79° 71° (ENE) 21:19:13 437.475
GONETS M04 02 Aug 21:10:44 21:16:20 19° 295° (WNW) 21:21:39
FUNcube-1 02 Aug 21:13:17 21:16:51 26° 54° (NE) 21:20:33 145.935
CANX-2 02 Aug 21:19:16 21:23:35 84° 256° (WSW) 21:27:57 2200.000
UWE-3 02 Aug 21:20:16 21:24:09 34° 58° (ENE) 21:28:09 435.000/436.395/437.385
Cosmos 2491 02 Aug 21:20:36 21:27:31 25° 33° (NNE) 21:34:32 435.465 / 435.565
HO-68 02 Aug 21:21:02 21:28:12 76° 251° (WSW) 21:35:26 435.675
CINEMA 3 02 Aug 21:21:32 21:25:42 64° 67° (ENE) 21:30:04 145.822/145.860
Oscar 11 02 Aug 21:22:11 21:26:15 40° 61° (ENE) 21:30:22 145.826/435.025
HUMSAT D 02 Aug 21:24:10 21:27:08 19° 49° (NE) 21:30:13 437.325/437.525
UKube-1 02 Aug 21:25:26 21:28:13 17° 45° (NE) 21:31:05 .
AAUSAT CUBESAT 2 02 Aug 21:26:12 21:30:24 69° 69° (ENE) 21:34:38 437.432
DOVE 4 02 Aug 21:26:25 21:30:34 69° 256° (WSW) 21:34:50 437.250
Cosmos 2499 02 Aug 21:31:31 21:39:10 37° 278° (W) 21:46:56 435.465 / 435.565
AIST 1 02 Aug 21:34:30 21:36:15 12° 42° (NE) 21:38:07
Cubesat XI-IV 02 Aug 21:37:15 21:38:26 10° 286° (WNW) 21:39:21 437.490
CUBEBUG 2 02 Aug 21:39:31 21:43:41 52° 64° (ENE) 21:48:00 437.445
AISAT 02 Aug 21:40:00 21:42:47 17° 44° (NE) 21:45:39 437.250
BRITE-PL 02 Aug 21:47:43 21:51:12 24° 270° (W) 21:54:35 437.365/2234.400
GOMX 1 02 Aug 21:48:02 21:51:51 33° 265° (W) 21:55:40 467.674
CUBEBUG 1 02 Aug 21:48:49 21:50:58 14° 41° (NE) 21:53:12 437.445
DX 1 02 Aug 21:55:30 21:59:05 26° 52° (NE) 22:02:42 434.975-435.025
STRAND 1 02 Aug 22:09:04 22:14:10 66° 295° (WNW) 22:19:14 437.568
50 SAT 02 Aug 22:15:21 22:18:28 23° 54° (NE) 22:21:41 437.505
VELOX 1 02 Aug 22:17:15 22:20:53 26° 52° (NE) 22:24:34 145.980
SPROUT 02 Aug 22:18:34 22:19:31 11° 36° (NE) 22:20:34 437.525
COMPASS 1 02 Aug 22:22:21 22:26:24 41° 263° (W) 22:30:27 437.405
AUBIESAT-1 02 Aug 22:26:30 22:27:40 11° 84° (E) 22:29:04 437.475
ZACube-1 02 Aug 22:27:43 22:32:00 82° 72° (ENE) 22:36:26 437.345
CUBESAT XI-V 02 Aug 22:31:18 22:34:51 22° 311° (NW) 22:38:20 437.345
DELFI C3 02 Aug 22:33:46 22:37:51 84° 252° (WSW) 22:42:00 145.870
ESTCUBE 1 02 Aug 22:36:34 22:40:24 28° 54° (NE) 22:44:17 437.505/2401.250
SEEDS 02 Aug 22:41:20 22:45:00 27° 269° (W) 22:48:40 437.485
PRISM 02 Aug 22:45:25 22:49:13 35° 302° (WNW) 22:52:57 437.425
CUTE 1.7 + AOD 2 02 Aug 22:47:57 22:51:19 21° 272° (W) 22:54:38 437.475
FUNcube-1 02 Aug 22:48:34 22:52:50 73° 255° (WSW) 22:57:15 145.935
RS-15 02 Aug 22:55:12 23:05:24 48° 120° (ESE) 23:16:09 29.354- 29.394
UWE-3 02 Aug 22:56:22 23:00:33 52° 260° (W) 23:04:54 435.000/436.395/437.385
CANX-2 02 Aug 22:57:14 23:00:13 18° 275° (W) 23:03:07 2200.000
HUMSAT D 02 Aug 22:58:05 23:02:18 76° 69° (ENE) 23:06:35 437.325/437.525
Oscar 11 02 Aug 22:58:15 23:02:26 43° 262° (W) 23:06:39 145.826/435.025
UKube-1 02 Aug 22:59:24 23:03:40 61° 65° (ENE) 23:07:57 .
CINEMA 3 02 Aug 22:59:46 23:03:20 26° 270° (W) 23:07:00 145.822/145.860
AAUSAT CUBESAT 2 02 Aug 23:02:56 23:06:25 24° 270° (W) 23:09:52 437.432
DOVE 4 02 Aug 23:07:06 23:09:17 14° 279° (W) 23:11:23 437.250
AIST 1 02 Aug 23:10:59 23:15:07 44° 66° (ENE) 23:19:13
HO-68 02 Aug 23:11:25 23:17:13 25° 276° (W) 23:22:53 435.675
AISAT 02 Aug 23:14:18 23:18:39 59° 65° (ENE) 23:23:00 437.250
CUBEBUG 2 02 Aug 23:16:45 23:20:37 32° 267° (W) 23:24:35 437.445
Cosmos 2491 02 Aug 23:18:10 23:26:45 56° 62° (ENE) 23:35:18 435.465 / 435.565
CUBEBUG 1 02 Aug 23:22:18 23:26:27 45° 62° (ENE) 23:30:36 437.445
Cosmos 2499 02 Aug 23:26:43 23:29:56 12° 303° (WNW) 23:32:48 435.465 / 435.565
DX 1 02 Aug 23:30:38 23:34:59 76° 253° (WSW) 23:39:22 434.975-435.025
M-CUBED/EXP-1 PRIME 02 Aug 23:31:39 23:36:02 34° 101° (E) 23:40:23 437.505
ISS 02 Aug 23:33:54 23:35:23 13° 162° (SSE) 23:36:56 145.825
UNISAT 6 02 Aug 23:35:47 23:39:24 22° 87° (E) 23:43:06 437.425
50 SAT 02 Aug 23:48:46 23:52:42 74° 254° (WSW) 23:56:42 437.505
STRAND 1 02 Aug 23:48:50 23:52:40 21° 317° (NW) 23:56:24 437.568
SPROUT 02 Aug 23:50:41 23:54:31 33° 58° (ENE) 23:58:23 437.525
VELOX 1 02 Aug 23:52:39 23:57:05 78° 252° (WSW) 00:01:32 145.980
BEESAT 02 Aug 23:53:41 23:56:10 14° 36° (NE) 23:58:44 436.000
YUBILEINY 02 Aug 23:53:59 00:00:39 26° 72° (ENE) 00:07:31 435.215
TISAT 1 02 Aug 23:54:42 23:58:12 27° 55° (NE) 00:01:46 437.305
DUCHIFAT 1 02 Aug 23:55:15 23:57:23 14° 82° (E) 23:59:40 145.980
AUBIESAT-1 02 Aug 23:59:00 00:03:36 45° 106° (ESE) 00:08:09 437.475
QB50P1 02 Aug 23:59:53 00:02:23 15° 84° (E) 00:05:01 145.935-145.965
NANOSAT C BR1 03 Aug 00:00:16 00:02:45 15° 84° (E) 00:05:21 145.865
ZACube-1 03 Aug 00:05:40 00:08:58 21° 273° (W) 00:12:16 437.345
DELFI C3 03 Aug 00:10:55 00:13:36 16° 275° (W) 00:16:13 145.870
ESTCUBE 1 03 Aug 00:12:24 00:16:58 73° 255° (WSW) 00:21:31 437.505/2401.250
SWISSCUBE 03 Aug 00:13:33 00:16:44 18° 42° (NE) 00:20:00 437.505
TIGRISAT 03 Aug 00:17:56 00:22:20 40° 96° (E) 00:26:48 435.000
BEESAT 2 03 Aug 00:18:12 00:20:02 13° 117° (ESE) 00:22:00 435.950
ANTELSAT 03 Aug 00:20:37 00:25:06 43° 97° (E) 00:29:37 437.575/2403.000
PRISM 03 Aug 00:22:27 00:23:38 11° 323° (NW) 00:24:42 437.425
FUNcube-1 03 Aug 00:27:25 00:30:02 15° 278° (W) 00:32:35 145.935
ITUPSAT 1 03 Aug 00:34:59 00:38:35 22° 46° (NE) 00:42:15 437.325
HUMSAT D 03 Aug 00:35:14 00:38:32 22° 272° (W) 00:41:51 437.325/437.525
UKube-1 03 Aug 00:36:23 00:40:08 27° 267° (W) 00:43:52 .
UWE-3 03 Aug 00:36:53 00:38:15 11° 283° (WNW) 00:39:26 435.000/436.395/437.385
POLYITAN 1 03 Aug 00:43:23 00:47:13 31° 94° (E) 00:51:06 437.675
AIST 1 03 Aug 00:48:48 00:52:43 35° 268° (W) 00:56:35
AISAT 03 Aug 00:51:39 00:55:32 29° 267° (W) 00:59:24 437.250
BUGSAT 1 03 Aug 00:52:44 00:56:07 25° 92° (E) 00:59:34 437.445
BEESAT 3 03 Aug 00:53:06 00:56:27 25° 126° (SE) 00:59:50 437.485
CUBEBUG 1 03 Aug 00:58:50 01:02:55 37° 263° (W) 01:06:59 437.445
POPSAT HIP 1 03 Aug 00:59:31 01:03:33 40° 97° (E) 01:07:37 437.405
RS-15 03 Aug 01:05:53 01:17:02 89° 147° (SSE) 01:28:47 29.354- 29.394
M-CUBED/EXP-1 PRIME 03 Aug 01:06:18 01:11:05 64° 302° (WNW) 01:15:49 437.505
QB50P2 03 Aug 01:07:42 01:11:52 47° 100° (E) 01:16:01 145.880/145.840
ISS 03 Aug 01:08:48 01:10:58 17° 181° (S) 01:13:07 145.825
DX 1 03 Aug 01:09:15 01:12:02 16° 275° (W) 01:14:42 434.975-435.025
UNISAT 6 03 Aug 01:12:05 01:16:47 86° 289° (WNW) 01:21:31 437.425
Cosmos 2491 03 Aug 01:15:21 01:23:51 58° 268° (W) 01:32:18 435.465 / 435.565
STARS 03 Aug 01:17:57 01:19:00 11° 34° (NE) 01:20:10 437.465
50 SAT 03 Aug 01:25:52 01:28:02 14° 277° (W) 01:30:07 437.505
SPROUT 03 Aug 01:26:16 01:30:28 53° 259° (W) 01:34:42 437.525
BEESAT 03 Aug 01:28:29 01:32:58 41° 58° (ENE) 01:37:29 436.000
TISAT 1 03 Aug 01:29:31 01:33:42 68° 256° (WSW) 01:37:54 437.305
DUCHIFAT 1 03 Aug 01:29:49 01:34:04 66° 104° (ESE) 01:38:18 145.980
VELOX 1 03 Aug 01:31:32 01:34:25 17° 275° (W) 01:37:13 145.980
AUBIESAT-1 03 Aug 01:33:45 01:38:20 48° 306° (NW) 01:42:53 437.475
QB50P1 03 Aug 01:34:46 01:39:02 75° 105° (ESE) 01:43:19 145.935-145.965
NANOSAT C BR1 03 Aug 01:35:06 01:39:22 74° 105° (ESE) 01:43:38 145.865
KKS-1 03 Aug 01:47:30 01:50:35 19° 46° (NE) 01:53:45 437.445
YUBILEINY 03 Aug 01:47:30 01:56:10 73° 98° (E) 02:04:57 435.215
SWISSCUBE 03 Aug 01:49:06 01:53:48 57° 64° (ENE) 01:58:32 437.505
ESTCUBE 1 03 Aug 01:51:46 01:54:41 16° 277° (W) 01:57:28 437.505/2401.250
Cosmos 2504 03 Aug 01:52:35 01:57:09 18° 66° (ENE) 02:02:10 435.465 / 435.565
BEESAT 2 03 Aug 01:53:18 01:57:17 48° 137° (SE) 02:01:17 435.950
TIGRISAT 03 Aug 01:54:43 01:59:12 47° 297° (WNW) 02:03:43 435.000
ANTELSAT 03 Aug 01:57:28 02:01:56 45° 298° (WNW) 02:06:25 437.575/2403.000
AIST 2 03 Aug 02:03:21 02:06:51 25° 126° (SE) 02:10:22 435.215
ITUPSAT 1 03 Aug 02:11:03 02:15:52 73° 67° (ENE) 02:20:42 437.325
POLYITAN 1 03 Aug 02:19:10 02:23:21 53° 296° (WNW) 02:27:32 437.675
O/OREOS (USA 219) 03 Aug 02:22:54 02:26:35 25° 109° (ESE) 02:30:20 437.305
Oscar 19 03 Aug 02:23:48 02:27:42 21° 86° (E) 02:31:42 437.125/150
BUGSAT 1 03 Aug 02:27:54 02:31:56 61° 293° (WNW) 02:35:59 437.445
BEESAT 3 03 Aug 02:29:52 02:33:58 83° 148° (SSE) 02:38:06 437.485
POPSAT HIP 1 03 Aug 02:35:27 02:39:29 41° 299° (WNW) 02:43:30 437.405
M-CUBED/EXP-1 PRIME 03 Aug 02:41:29 02:45:10 22° 323° (NW) 02:48:51 437.505
QB50P2 03 Aug 02:43:46 02:47:42 36° 301° (WNW) 02:51:36 145.880/145.840
ISS 03 Aug 02:45:19 02:46:30 12° 201° (SSW) 02:47:39 145.825
UNISAT 6 03 Aug 02:49:22 02:53:04 24° 310° (NW) 02:56:46 437.425
STARS 03 Aug 02:50:27 02:54:19 32° 56° (NE) 02:58:14 437.465
MOZHAYETS 4 03 Aug 02:54:19 02:57:02 16° 42° (NE) 02:59:51
DUCHIFAT 1 03 Aug 03:05:59 03:09:36 28° 305° (NW) 03:13:12 145.980
BEESAT 03 Aug 03:06:07 03:10:48 49° 260° (W) 03:15:29 436.000
SPROUT 03 Aug 03:06:15 03:07:37 11° 281° (WNW) 03:08:49 437.525
TISAT 1 03 Aug 03:08:03 03:10:18 14° 277° (W) 03:12:27 437.305
AUBIESAT-1 03 Aug 03:08:56 03:12:11 19° 327° (NNW) 03:15:24 437.475
QB50P1 03 Aug 03:11:03 03:14:34 25° 306° (NW) 03:18:04 145.935-145.965
NANOSAT C BR1 03 Aug 03:11:21 03:14:53 25° 306° (NW) 03:18:22 145.865
Cosmos 2491 03 Aug 03:13:05 03:19:01 20° 293° (WNW) 03:24:40 435.465 / 435.565
RS-15 03 Aug 03:18:56 03:30:16 74° 1° (N) 03:42:10 29.354- 29.394
KKS-1 03 Aug 03:22:11 03:26:35 69° 67° (ENE) 03:31:02 437.445
SWISSCUBE 03 Aug 03:27:32 03:31:56 34° 266° (W) 03:36:19 437.505
BEESAT 2 03 Aug 03:31:10 03:35:18 65° 339° (NNW) 03:39:25 435.950
TIGRISAT 03 Aug 03:32:21 03:35:03 15° 319° (NW) 03:37:41 435.000
ANTELSAT 03 Aug 03:35:11 03:37:47 15° 320° (NW) 03:40:18 437.575/2403.000
JAS-2 03 Aug 03:37:55 03:43:54 24° 78° (ENE) 03:50:08 435.910
Gurwin Techsat 1B 03 Aug 03:40:15 03:44:52 29° 90° (E) 03:49:30 435.225
Cosmos 2504 03 Aug 03:40:30 03:47:39 55° 91° (E) 03:55:25 435.465 / 435.565
AIST 2 03 Aug 03:40:42 03:44:59 81° 147° (SSE) 03:49:16 435.215
YUBILEINY 03 Aug 03:45:22 03:53:43 46° 304° (NW) 04:02:08 435.215
ITAMSAT 1 03 Aug 03:49:29 03:54:00 29° 91° (E) 03:58:32 435.822/435.867
AO-7 03 Aug 03:49:46 03:53:41 14° 70° (ENE) 03:57:59 29.400- 29.500
ITUPSAT 1 03 Aug 03:50:08 03:54:15 27° 269° (W) 03:58:19 437.325
POLYITAN 1 03 Aug 03:55:59 03:58:29 15° 316° (NW) 04:00:54 437.675
O/OREOS (USA 219) 03 Aug 04:01:06 04:05:37 80° 310° (NW) 04:10:12 437.305
Oscar 19 03 Aug 04:02:39 04:07:52 84° 106° (ESE) 04:13:06 437.125/150
BUGSAT 1 03 Aug 04:04:14 04:06:45 16° 314° (NW) 04:09:11 437.445
BEESAT 3 03 Aug 04:08:08 04:12:10 51° 350° (N) 04:16:10 437.485
POPSAT HIP 1 03 Aug 04:12:31 04:14:26 13° 320° (NW) 04:16:16 437.405
M-CUBED/EXP-1 PRIME 03 Aug 04:16:49 04:18:34 12° 344° (NNW) 04:20:17 437.505
QB50P2 03 Aug 04:21:07 04:22:35 11° 322° (NW) 04:23:56 145.880/145.840
STARS 03 Aug 04:26:14 04:30:34 59° 257° (WSW) 04:34:57 437.465
MOZHAYETS 4 03 Aug 04:28:54 04:33:23 50° 64° (ENE) 04:37:56
GONETS M04 03 Aug 04:39:37 04:43:34 14° 59° (ENE) 04:47:53
STRAND 1 03 Aug 04:42:06 04:44:22 13° 30° (NNE) 04:46:44 437.568
AUBIESAT-1 03 Aug 04:44:13 04:45:23 11° 350° (N) 04:46:31 437.475
BEESAT 03 Aug 04:48:10 04:49:54 12° 283° (WNW) 04:51:27 436.000
CUBESAT XI-V 03 Aug 04:53:56 04:57:08 19° 46° (NE) 05:00:25 437.345
KKS-1 03 Aug 04:59:56 05:03:40 25° 269° (W) 05:07:22 437.445
BEESAT 2 03 Aug 05:09:45 05:13:47 48° 2° (N) 05:17:48 435.950
AIST 2 03 Aug 05:19:36 05:23:48 53° 350° (N) 05:27:58 435.215
Gurwin Techsat 1B 03 Aug 05:20:03 05:25:24 75° 293° (WNW) 05:30:43 435.225
JAS-2 03 Aug 05:22:39 05:30:23 68° 102° (ESE) 05:38:15 435.910
ITAMSAT 1 03 Aug 05:28:49 05:34:01 72° 294° (WNW) 05:39:11 435.822/435.867
RS-15 03 Aug 05:31:58 05:43:31 89° 208° (SSW) 05:55:35 29.354- 29.394
Cosmos 2504 03 Aug 05:32:44 05:40:02 54° 298° (WNW) 05:47:56 435.465 / 435.565
AO-7 03 Aug 05:41:15 05:49:11 45° 97° (E) 05:57:07 29.400- 29.500
O/OREOS (USA 219) 03 Aug 05:41:40 05:45:41 29° 334° (NNW) 05:49:43 437.305
Oscar 19 03 Aug 05:42:24 05:46:50 29° 310° (NW) 05:51:13 437.125/150
HORYU 2 03 Aug 05:46:17 05:50:37 43° 99° (E) 05:54:57 437.375
BEESAT 3 03 Aug 05:46:32 05:50:35 54° 13° (NNE) 05:54:36 437.485
YUBILEINY 03 Aug 05:46:44 05:53:22 23° 335° (NNW) 05:59:56 435.215
DANDE 03 Aug 05:46:53 05:49:26 38° 100° (E) 05:51:54 436.750
CUSAT 1 03 Aug 05:50:08 05:52:43 72° 104° (ESE) 05:55:28 437.405
M-CUBED/EXP-1 PRIME 03 Aug 05:50:36 05:51:35 11° 7° (N) 05:52:36 437.505
STARS 03 Aug 06:05:59 06:08:02 13° 279° (W) 06:09:56 437.465
MOZHAYETS 4 03 Aug 06:06:26 06:10:47 37° 265° (W) 06:15:09
AUBIESAT-1 03 Aug 06:17:00 06:18:20 11° 13° (NNE) 06:19:43 437.475
STRAND 1 03 Aug 06:17:45 06:22:17 33° 53° (NE) 06:26:52 437.568
CUBESAT XI-V 03 Aug 06:29:16 06:33:54 65° 67° (ENE) 06:38:32 437.345
GONETS M04 03 Aug 06:30:11 06:38:09 43° 85° (E) 06:46:12
PRISM 03 Aug 06:34:47 06:38:24 29° 56° (NE) 06:42:02 437.425
Cosmos 2499 03 Aug 06:38:36 06:42:59 17° 63° (ENE) 06:47:50 435.465 / 435.565
BEESAT 2 03 Aug 06:48:04 06:52:13 75° 25° (NNE) 06:56:20 435.950
AIST 2 03 Aug 06:58:39 07:02:52 55° 13° (NNE) 07:07:02 435.215
Gurwin Techsat 1B 03 Aug 07:00:31 07:04:45 24° 315° (NW) 07:08:54 435.225
JAS-2 03 Aug 07:07:57 07:15:17 50° 305° (NW) 07:22:45 435.910
ITAMSAT 1 03 Aug 07:08:49 07:12:53 23° 315° (NW) 07:16:52 435.822/435.867
CUTE-I 03 Aug 07:13:29 07:17:27 21° 85° (E) 07:21:32 437.470
M-CUBED/EXP-1 PRIME 03 Aug 07:21:53 07:24:48 17° 30° (NNE) 07:27:51 437.505
Oscar 19 03 Aug 07:22:49 07:24:47 12° 333° (NNW) 07:26:41 437.125/150
O/OREOS (USA 219) 03 Aug 07:22:57 07:26:26 21° 359° (N) 07:29:55 437.305
HORYU 2 03 Aug 07:23:00 07:27:18 42° 299° (WNW) 07:31:33 437.375
BEESAT 3 03 Aug 07:24:35 07:28:41 70° 216° (SW) 07:32:43 437.485
Cosmos 2504 03 Aug 07:28:25 07:34:25 23° 326° (NNW) 07:40:39 435.465 / 435.565
DANDE 03 Aug 07:30:58 07:32:45 16° 305° (NW) 07:34:29 436.750
AO-7 03 Aug 07:34:17 07:42:38 74° 302° (WNW) 07:50:55 29.400- 29.500
CUSAT 1 03 Aug 07:34:45 07:35:49 12° 312° (NW) 07:36:52 437.405
RS-15 03 Aug 07:44:23 07:55:16 49° 239° (WSW) 08:06:29 29.354- 29.394
AUBIESAT-1 03 Aug 07:48:19 07:51:34 20° 35° (NE) 07:55:00 437.475
YUBILEINY 03 Aug 07:48:32 07:54:18 19° 7° (N) 08:00:09 435.215
STRAND 1 03 Aug 07:56:05 08:01:14 72° 255° (WSW) 08:06:24 437.568
Cubesat XI-IV 03 Aug 07:57:53 08:02:53 39° 96° (E) 08:07:53 437.490
CUBESAT XI-V 03 Aug 08:07:40 08:11:44 28° 269° (W) 08:15:46 437.345
PRISM 03 Aug 08:09:28 08:13:38 61° 257° (WSW) 08:17:46 437.425
ANTELSAT 03 Aug 08:21:23 08:22:03 10° 32° (NNE) 08:22:49 437.575/2403.000
GONETS M04 03 Aug 08:25:57 08:34:40 72° 290° (WNW) 08:43:24
BEESAT 2 03 Aug 08:26:16 08:30:06 37° 227° (SW) 08:33:52 435.950
Cosmos 2499 03 Aug 08:26:50 08:34:10 50° 89° (E) 08:42:10 435.465 / 435.565
AIST 2 03 Aug 08:37:22 08:41:37 71° 216° (SW) 08:45:48 435.215
HO-68 03 Aug 08:38:34 08:42:07 14° 73° (ENE) 08:45:56 435.675
Gurwin Techsat 1B 03 Aug 08:41:40 08:43:07 11° 338° (NNW) 08:44:28 435.225
ITAMSAT 1 03 Aug 08:49:42 08:50:47 11° 339° (NNW) 08:51:47 435.822/435.867
CUTE-I 03 Aug 08:53:02 08:58:26 82° 108° (ESE) 09:03:46 437.470
JAS-2 03 Aug 08:53:08 08:58:55 24° 328° (NNW) 09:04:48 435.910
M-CUBED/EXP-1 PRIME 03 Aug 08:54:26 08:58:37 43° 52° (NE) 09:03:06 437.505
CANX-2 03 Aug 08:56:37 08:57:22 10° 77° (ENE) 08:58:18 2200.000
HORYU 2 03 Aug 09:00:38 09:02:59 14° 321° (NW) 09:05:14 437.375
BEESAT 3 03 Aug 09:03:02 09:06:04 20° 237° (WSW) 09:09:00 437.485
O/OREOS (USA 219) 03 Aug 09:03:13 09:07:11 28° 24° (NNE) 09:11:11 437.305
PCSat 03 Aug 09:03:20 09:05:13 12° 105° (ESE) 09:07:18 145.827
UNISAT 6 03 Aug 09:09:53 09:12:47 17° 44° (NE) 09:15:46 437.425
DOVE 4 03 Aug 09:14:59 09:17:59 18° 85° (E) 09:21:12 437.250
AUBIESAT-1 03 Aug 09:21:12 09:25:31 57° 56° (NE) 09:30:07 437.475
DUCHIFAT 1 03 Aug 09:24:21 09:25:39 11° 38° (NE) 09:27:04 145.980
Cosmos 2504 03 Aug 09:25:42 09:30:16 16° 357° (N) 09:34:58 435.465 / 435.565
AO-7 03 Aug 09:27:09 09:34:31 36° 327° (NNW) 09:41:48 29.400- 29.500
QB50P1 03 Aug 09:29:06 09:30:48 12° 40° (NE) 09:32:37 145.935-145.965
NANOSAT C BR1 03 Aug 09:29:19 09:30:59 12° 40° (NE) 09:32:45 145.865
STRAND 1 03 Aug 09:37:52 09:41:25 18° 277° (W) 09:44:51 437.568
Cubesat XI-IV 03 Aug 09:38:01 09:43:16 57° 298° (WNW) 09:48:29 437.490
GOMX 1 03 Aug 09:38:07 09:42:07 33° 94° (E) 09:46:23 467.674
BRITE-PL 03 Aug 09:40:00 09:44:10 47° 100° (E) 09:48:35 437.365/2234.400
YUBILEINY 03 Aug 09:47:24 09:54:51 30° 39° (NE) 10:02:24 435.215
PRISM 03 Aug 09:48:06 09:49:59 12° 278° (W) 09:51:43 437.425
TIGRISAT 03 Aug 09:50:56 09:54:40 27° 53° (NE) 09:58:31 435.000
ANTELSAT 03 Aug 09:53:44 09:57:33 29° 54° (NE) 10:01:30 437.575/2403.000
COMPASS 1 03 Aug 09:55:41 09:58:45 19° 86° (E) 10:01:52 437.405
RS-15 03 Aug 09:57:49 10:04:55 18° 265° (W) 10:11:34 29.354- 29.394
POLYITAN 1 03 Aug 10:11:40 10:14:47 21° 50° (NE) 10:18:00 437.675
SEEDS 03 Aug 10:14:34 10:18:22 30° 93° (E) 10:22:11 437.485
AIST 2 03 Aug 10:16:25 10:19:38 21° 237° (WSW) 10:22:45 435.215
BUGSAT 1 03 Aug 10:18:51 10:21:24 17° 47° (NE) 10:24:00 437.445
Cosmos 2499 03 Aug 10:19:35 10:27:18 61° 295° (WNW) 10:35:41 435.465 / 435.565
CUTE 1.7 + AOD 2 03 Aug 10:21:27 10:25:32 39° 97° (E) 10:29:36 437.475
HO-68 03 Aug 10:25:02 10:31:57 47° 98° (E) 10:38:52 435.675
GONETS M04 03 Aug 10:25:43 10:33:16 31° 319° (NW) 10:40:45
POPSAT HIP 1 03 Aug 10:27:16 10:30:42 25° 53° (NE) 10:34:11 437.405
FUNcube-1 03 Aug 10:27:35 10:29:51 14° 80° (E) 10:32:16 145.935
M-CUBED/EXP-1 PRIME 03 Aug 10:29:10 10:33:23 47° 254° (WSW) 10:37:56 437.505
CANX-2 03 Aug 10:30:12 10:34:26 49° 100° (E) 10:38:38 2200.000
CUTE-I 03 Aug 10:33:29 10:38:08 31° 310° (NW) 10:42:43 437.470
AAUSAT CUBESAT 2 03 Aug 10:34:31 10:38:20 32° 94° (E) 10:42:10 437.432
QB50P2 03 Aug 10:35:22 10:38:58 28° 55° (NE) 10:42:38 145.880/145.840
Oscar 11 03 Aug 10:35:29 10:38:44 20° 87° (E) 10:42:02 145.826/435.025
UWE-3 03 Aug 10:36:02 10:39:19 19° 85° (E) 10:42:43 435.000/436.395/437.385
JAS-2 03 Aug 10:37:21 10:41:39 17° 353° (N) 10:46:03 435.910
Oscar 19 03 Aug 10:38:16 10:39:12 10° 23° (NNE) 10:40:13 437.125/150
PCSat 03 Aug 10:42:21 10:47:26 43° 126° (SE) 10:52:35 145.827
CINEMA 3 03 Aug 10:42:38 10:47:01 40° 97° (E) 10:51:34 145.822/145.860
O/OREOS (USA 219) 03 Aug 10:42:44 10:47:20 72° 48° (NE) 10:51:56 437.305
Cosmos 2491 03 Aug 10:42:52 10:46:21 13° 58° (ENE) 10:50:13 435.465 / 435.565
UNISAT 6 03 Aug 10:44:24 10:48:47 58° 65° (ENE) 10:53:17 437.425
SO-50 03 Aug 10:50:03 10:54:24 34° 129° (SE) 10:58:53 436.795
DOVE 4 03 Aug 10:51:59 10:56:30 78° 106° (ESE) 11:01:17 437.250
AUBIESAT-1 03 Aug 10:56:27 11:00:28 34° 259° (W) 11:04:42 437.475
CUBEBUG 2 03 Aug 10:56:35 11:00:40 31° 92° (E) 11:04:52 437.445
DUCHIFAT 1 03 Aug 10:56:37 11:00:27 36° 60° (ENE) 11:04:21 145.980
QB50P1 03 Aug 11:01:47 11:05:44 40° 61° (ENE) 11:09:44 145.935-145.965
NANOSAT C BR1 03 Aug 11:01:57 11:05:53 40° 61° (ENE) 11:09:52 145.865
DX 1 03 Aug 11:11:07 11:11:45 10° 78° (ENE) 11:12:35 434.975-435.025
GOMX 1 03 Aug 11:16:13 11:20:31 53° 294° (WNW) 11:25:03 467.674
Cubesat XI-IV 03 Aug 11:18:41 11:22:31 20° 320° (NW) 11:26:16 437.490
BRITE-PL 03 Aug 11:18:46 11:22:43 36° 299° (WNW) 11:26:50 437.365/2234.400
AO-7 03 Aug 11:18:57 11:25:19 25° 354° (N) 11:31:39 29.400- 29.500
Cosmos 2504 03 Aug 11:20:25 11:26:15 21° 28° (NNE) 11:32:25 435.465 / 435.565
TIGRISAT 03 Aug 11:26:37 11:31:03 76° 255° (WSW) 11:35:39 435.000
ANTELSAT 03 Aug 11:29:34 11:34:02 70° 256° (WSW) 11:38:37 437.575/2403.000
COMPASS 1 03 Aug 11:30:44 11:35:01 86° 289° (WNW) 11:39:15 437.405
VELOX 1 03 Aug 11:34:39 11:35:58 11° 79° (E) 11:37:28 145.980
DELFI C3 03 Aug 11:37:39 11:41:33 41° 98° (E) 11:45:25 145.870
ZACube-1 03 Aug 11:42:09 11:46:31 45° 98° (E) 11:50:56 437.345
POLYITAN 1 03 Aug 11:45:57 11:50:11 84° 71° (ENE) 11:54:28 437.675
